Houston Hull, TX

12:29 PM CDT on September 17, 2019 (GMT -0500)
Sugar Land Municipal-Hull

Weather History for KSGR - August, 2019

Change the Weather History Date:

Saturday, August 24, 2019

  Actual Average Record
Temperature  
Mean Temperature 84 °F -  
Max Temperature 93 °F 92 °F 103 °F (1980)
Min Temperature 75 °F 73 °F 32 °F (1999)
Cooling Degree Days 19    
Growing Degree Days 34 (Base 50)    
Moisture  
Dew Point 77 °F    
Average Humidity 81    
Maximum Humidity 100    
Minimum Humidity 57    
Precipitation  
Precipitation 0.00 in - - ()
Sea Level Pressure  
Sea Level Pressure 29.90 in    
Wind  
Wind Speed 4 mph ()    
Max Wind Speed 12 mph    
Max Gust Speed -    
Visibility 10.0 miles    
Events      
Averages and records for this station are not official NWS values.
T = Trace of Precipitation, MM = Missing Value Source: Averaged Metar Reports

Daily Weather History Graph

Daily Weather History Graph

Search for Another Location

Airport or City:

Astronomy

Aug. 24, 2019 Rise Set
Actual Time 6:55 AM CDT 7:54 PM CDT
Civil Twilight 6:30 AM CDT 8:18 PM CDT
Nautical Twilight 6:01 AM CDT 8:47 PM CDT
Astronomical Twilight 5:31 AM CDT 9:17 PM CDT
Moon 12:58 AM CDT (8/24) 2:59 PM CDT (8/24)
Length of Visible Light 13h 47m
Length of Day
12h 58m
Last Quarter, 39% of the Moon is Illuminated
Aug 24
Last Quarter
Aug 30
New
Sep 5
First Quarter
Sep 13
Full
Sep 21
Last Quarter

Hourly Weather History & Observations

Time (CDT) Temp. Heat Index Dew Point Humidity Pressure Visibility Wind Dir Wind Speed Gust Speed Precip Events Conditions
12:53 AM 77.0 °F - 75.9 °F 96% 29.91 in 10.0 mi Calm Calm - N/A   Clear
1:53 AM 75.9 °F - 75.9 °F 100% 29.91 in 10.0 mi Calm Calm - N/A   Partly Cloudy
2:39 AM 75.9 °F - 75.9 °F 100% 29.91 in 10.0 mi Calm Calm - N/A   Mostly Cloudy
2:53 AM 75.9 °F - 75.9 °F 100% 29.92 in 10.0 mi Calm Calm - N/A   Scattered Clouds
3:53 AM 78.1 °F - 75.9 °F 93% 29.91 in 10.0 mi NE 4.6 mph - N/A   Mostly Cloudy
4:53 AM 77.0 °F - 75.9 °F 96% 29.91 in 10.0 mi NE 3.5 mph - N/A   Partly Cloudy
5:53 AM 75.9 °F - 75.9 °F 100% 29.91 in 10.0 mi North 3.5 mph - N/A   Clear
6:53 AM 78.1 °F - 75.9 °F 93% 29.91 in 10.0 mi NE 4.6 mph - N/A   Scattered Clouds
7:53 AM 79.0 °F - 75.9 °F 90% 29.93 in 10.0 mi NNE 4.6 mph - N/A   Scattered Clouds
8:53 AM 81.0 °F 87.9 °F 77.0 °F 88% 29.94 in 10.0 mi ENE 8.1 mph - N/A   Mostly Cloudy
9:38 AM 82.9 °F 91.8 °F 77.0 °F 82% 29.93 in 10.0 mi East 4.6 mph - N/A   Partly Cloudy
9:45 AM 84.0 °F 93.7 °F 77.0 °F 79% 29.93 in 10.0 mi NE 5.8 mph - N/A   Mostly Cloudy
9:53 AM 84.0 °F 93.7 °F 77.0 °F 79% 29.93 in 10.0 mi NE 6.9 mph - N/A   Clear
10:51 AM 84.2 °F 94.1 °F 77.0 °F 79% 29.92 in 10.0 mi ENE 6.9 mph - N/A   Mostly Cloudy
10:53 AM 86.0 °F 96.9 °F 77.0 °F 74% 29.92 in 10.0 mi NE 5.8 mph - N/A   Mostly Cloudy
11:43 AM 88.0 °F 100.2 °F 77.0 °F 70% 29.93 in 10.0 mi East 8.1 mph - N/A   Partly Cloudy
11:53 AM 88.0 °F 98.5 °F 75.9 °F 67% 29.93 in 10.0 mi ENE 5.8 mph - N/A   Scattered Clouds
12:14 PM 87.1 °F 97.3 °F 75.9 °F 69% 29.92 in 10.0 mi SE 4.6 mph - N/A   Mostly Cloudy
12:28 PM 87.1 °F 97.3 °F 75.9 °F 69% 29.92 in 10.0 mi ESE 5.8 mph - N/A   Overcast
12:53 PM 89.1 °F 101.4 °F 77.0 °F 67% 29.92 in 10.0 mi East 4.6 mph - N/A   Scattered Clouds
1:53 PM 91.0 °F 102.9 °F 75.9 °F 61% 29.90 in 10.0 mi ESE 6.9 mph - N/A   Partly Cloudy
2:53 PM 93.0 °F 105.3 °F 75.9 °F 57% 29.87 in 10.0 mi East 6.9 mph - N/A   Clear
3:53 PM 91.0 °F 104.2 °F 77.0 °F 63% 29.85 in 10.0 mi SSE 10.4 mph - N/A   Scattered Clouds
4:53 PM 91.0 °F 104.2 °F 77.0 °F 63% 29.82 in 10.0 mi SSE 11.5 mph - N/A   Clear
5:53 PM 91.0 °F 104.2 °F 77.0 °F 63% 29.83 in 10.0 mi South 9.2 mph - N/A   Partly Cloudy
6:53 PM 89.1 °F 101.4 °F 77.0 °F 67% 29.84 in 10.0 mi SSE 11.5 mph - N/A   Clear
7:53 PM 84.9 °F 95.3 °F 77.0 °F 77% 29.86 in 10.0 mi South 10.4 mph - N/A   Clear
8:53 PM 82.9 °F 92.8 °F 78.1 °F 85% 29.87 in 10.0 mi South 9.2 mph - N/A   Partly Cloudy
9:53 PM 81.0 °F 88.6 °F 78.1 °F 91% 29.90 in 10.0 mi South 9.2 mph - N/A   Clear
10:53 PM 81.0 °F 88.6 °F 78.1 °F 91% 29.92 in 10.0 mi SSE 5.8 mph - N/A   Clear
11:53 PM 81.0 °F 88.6 °F 78.1 °F 91% 29.91 in 10.0 mi South 6.9 mph - N/A   Clear